Wind_Gust
6 2 1 3 4 4 7 8 8 10 5 8 8 5 12 3 8 7 10 3 5 8 9 5 10 10 4 7 13 12 14 9 4 20 13 12 12 15 17 18 19 17 15 13 11 11 13 13 14 15 16 17 17 17 17 20 21 21 21 20 20 20 19 20 20 20 19 20 22 21 22 21 21 20 19 20 19 19 18 19 20 21 20 20 19 19 18 18 19 19 19 19 17 18 18 20 21
5 2 3 2 3 3 6 6 9 3 8 6 15 4 8 5 4 8 11 4 7 10 6 17 17 20 17 16 14 7 16 15 6 9 13 14 17 15 17 20 19 20 15 14 13 13 12 13 15 16 16 18 18 17 19 19 19 20 21 21 19 19 19 18 18 19 19 18 19 19 21 21 20 19 19 18 17 14 15 17 19 21 20 19 19 19 18 18 19 18 17 17 17 18 17 19 20
2 4 5 7 8 8 5 6 6 3 5 9 16 11 6 9 8 13 12 5 11 15 7 14 12 6 5 5 14 8 5 10 17 14 18 18 23 11 13 15 17 16 16 14 15 15 14 13 14 14 16 17 17 18 19 19 20 20 21 20 19 19 19 19 18 18 19 18 18 19 19 19 18 17 18 18 16 16 15 15 16 19 20 18 17 18 18 18 16 14 15 15 17 18 17 17 18
3 4 7 5 5 9 7 7 8 13 8 12 10 11 9 4 6 3 8 8 15 15 13 7 7 5 6 16 12 13 12 9 8 14 26 18 12 16 17 17 15 15 15 14 16 15 14 18 17 14 15 16 16 18 19 20 19 20 19 19 19 18 19 18 19 18 18 18 18 19 18 18 18 19 19 19 17 17 16 16 15 16 17 16 15 16 18 17 16 15 13 15 17 18 16 16 16
4 3 4 6 11 5 7 6 8 7 10 13 10 11 7 9 10 9 8 5 9 6 4 8 14 7 5 11 4 8 6 12 12 6 18 13 16 17 20 18 17 16 15 14 15 14 13 21 18 14 14 16 17 18 19 19 19 19 19 19 18 18 18 19 19 18 18 18 18 18 18 18 19 19 19 18 16 15 16 15 11 10 11 11 11 13 17 15 15 15 14 13 14 15 15 14 14
6 6 4 5 5 7 11 4 4 6 16 9 5 10 7 10 8 11 4 9 5 6 4 5 10 11 11 7 7 9 4 11 13 9 20 18 20 20 19 18 19 17 15 13 18 17 16 19 18 16 15 15 16 17 19 20 20 19 19 18 17 18 18 18 18 18 18 18 18 18 18 18 18 18 18 17 16 15 14 11 9 11 12 12 10 15 17 16 15 14 13 11 12 12 13 13 13
3 8 9 7 5 11 10 6 9 10 17 10 10 10 13 18 12 9 10 2 6 6 8 7 19 16 17 8 8 13 8 9 15 15 8 20 19 18 18 19 19 17 14 12 13 22 19 19 17 16 15 16 16 17 18 20 20 19 19 17 16 18 18 18 17 17 18 18 18 18 17 17 17 17 16 17 16 16 12 9 12 12 11 10 14 17 17 16 15 13 12 10 10 10 11 11 11
3 6 4 7 6 3 3 3 10 10 12 9 5 5 13 15 13 7 12 4 9 11 3 14 8 14 5 5 10 11 13 7 14 16 19 20 18 17 18 20 21 16 13 9 9 19 23 20 18 16 15 15 18 19 20 20 20 19 18 17 16 15 16 17 17 16 15 17 18 18 17 16 16 16 16 16 15 15 14 14 14 13 13 15 16 17 17 16 15 13 12 10 8 9 9 11 11
6 10 2 11 4 5 3 8 13 4 12 9 14 13 18 18 16 11 17 8 1 3 11 4 2 12 7 14 10 7 13 12 18 21 18 18 18 17 19 19 21 17 14 13 11 10 17 17 17 17 16 15 17 19 19 20 19 19 19 18 16 15 13 15 17 16 14 15 16 16 16 16 16 15 15 15 16 15 16 15 13 13 14 15 16 17 16 16 14 13 11 9 8 8 9 10 11
4 4 4 9 8 4 3 14 3 7 6 9 11 21 19 19 13 10 16 4 9 12 3 6 5 14 16 16 11 9 8 12 19 17 14 14 16 15 16 16 17 19 16 15 14 12 12 18 16 15 14 15 16 17 16 17 18 18 18 16 15 14 14 14 13 14 14 16 16 15 15 15 15 15 15 16 15 14 15 15 14 14 14 14 15 15 15 14 13 12 11 9 7 8 9 10 10
5 9 6 8 3 3 7 11 5 10 10 12 16 19 19 22 14 18 8 6 5 10 8 12 19 17 14 9 8 4 9 12 20 22 16 16 15 17 17 15 16 16 21 18 18 14 13 13 19 14 13 14 14 14 14 15 15 15 15 15 14 14 15 14 14 15 15 16 16 16 16 16 15 15 14 14 15 14 14 14 13 14 14 14 14 14 14 13 12 11 9 7 7 7 7 8 8
4 4 5 6 6 8 9 7 5 14 14 9 14 15 8 11 5 7 10 15 6 5 5 3 17 16 16 10 8 5 9 10 13 18 17 15 16 15 17 16 14 12 17 17 17 17 15 13 13 17 13 13 13 14 14 15 14 15 14 15 14 15 15 14 14 16 17 16 16 16 15 15 15 14 12 12 13 14 14 14 14 14 14 14 14 13 13 12 11 10 8 7 6 6 7 7 8
8 3 8 7 6 3 9 2 9 8 10 13 7 20 12 8 2 11 8 12 8 8 5 5 25 7 12 10 7 6 11 9 8 15 16 15 15 15 13 14 13 14 17 14 15 14 12 12 12 13 13 17 14 12 13 15 15 15 15 14 15 15 14 14 15 15 15 16 15 15 14 14 14 14 13 12 12 12 13 13 13 13 14 14 14 13 12 11 10 10 9 7 6 6 6 6 7
8 11 8 6 2 5 7 4 3 5 11 9 8 9 16 6 2 6 15 12 4 3 4 22 15 17 12 12 6 9 11 11 12 12 14 14 14 14 14 14 13 14 15 16 15 14 11 10 11 11 13 11 11 14 13 14 14 14 14 14 15 14 14 14 13 13 14 14 13 13 13 14 14 13 12 11 11 10 10 11 11 12 14 13 13 12 11 10 10 9 8 6 5 4 4 5 6
4 4 5 4 5 2 7 8 5 3 12 5 14 15 18 7 3 5 13 13 5 4 13 4 18 13 17 19 13 18 17 16 13 12 14 14 15 15 15 14 12 12 13 15 14 13 11 11 12 11 10 9 9 9 9 13 14 13 14 14 14 14 13 14 15 12 14 14 14 13 13 14 13 14 13 12 10 9 10 11 9 11 12 13 12 12 11 10 9 8 8 5 3 3 4 4 6
8 6 5 5 8 5 14 5 2 2 14 6 13 9 5 4 4 4 6 4 13 7 6 11 5 5 15 22 21 24 22 18 14 15 17 17 16 15 16 14 12 12 14 14 14 11 12 12 12 12 11 10 9 8 9 9 13 11 12 13 14 14 13 14 14 13 14 14 13 11 10 10 11 11 15 11 11 9 8 7 10 10 11 12 11 11 11 10 9 9 7 6 4 3 5 5 6
3 6 4 6 11 5 9 6 6 4 12 12 14 12 14 7 5 7 6 9 22 6 5 5 6 4 25 12 18 25 21 18 17 19 19 18 19 17 15 13 12 10 11 12 10 11 10 12 15 11 11 11 10 8 6 6 9 12 11 12 13 14 14 15 14 15 11 11 11 10 8 7 5 6 8 7 11 6 7 8 10 11 11 11 11 11 10 10 9 8 6 6 4 3 4 5 7
5 7 8 8 10 6 10 5 7 4 8 13 13 8 9 7 12 5 9 13 9 8 10 5 15 15 12 13 24 23 19 20 19 21 17 17 18 20 18 14 14 13 13 11 10 9 9 9 14 12 11 11 8 7 5 4 6 9 7 8 9 12 13 12 9 8 10 6 11 9 6 7 7 6 5 9 5 6 7 8 9 10 10 11 10 9 9 8 8 8 6 5 4 2 4 3 4
9 6 8 16 8 14 6 5 5 6 13 8 9 8 3 3 3 4 6 1 4 12 8 8 14 16 17 21 24 23 22 19 21 19 19 18 21 23 21 17 15 16 13 13 11 11 9 8 9 13 12 9 8 4 4 3 5 6 6 8 9 10 11 10 7 9 6 7 6 6 7 7 6 7 6 7 7 8 6 8 9 10 10 10 9 8 9 8 8 6 7 5 3 2 2 3 3
8 9 12 13 9 8 5 5 8 7 7 12 10 12 6 7 4 3 5 5 4 13 12 6 9 15 17 20 20 22 20 19 18 18 18 18 19 23 21 19 17 16 15 15 14 12 12 11 6 8 12 10 7 5 4 2 6 7 8 8 8 8 9 8 7 7 6 6 7 6 6 6 5 6 9 11 10 5 4 5 8 10 10 9 10 7 8 6 6 6 5 4 6 6 5 5 5
7 8 13 11 7 8 9 8 13 13 5 7 8 8 12 8 4 3 7 9 4 6 7 17 15 20 19 19 20 19 19 16 17 16 16 17 14 13 14 16 18 16 17 18 17 17 14 14 9 10 12 11 9 7 6 5 5 7 7 8 9 8 8 7 7 6 6 6 5 6 6 5 6 7 7 8 5 6 7 6 5 4 4 4 6 3 2 2 2 2 5 5 5 4 5 7 7
6 11 6 10 5 5 15 11 9 7 4 4 7 5 8 6 2 4 9 4 9 15 14 10 22 23 28 25 20 19 18 17 17 16 13 14 19 16 12 16 13 12 15 15 18 18 17 16 13 10 10 10 10 8 9 9 9 5 8 8 9 8 8 6 5 5 6 5 5 6 6 7 5 7 7 7 4 6 8 8 7 6 5 6 5 5 2 2 4 3 3 5 4 3 3 4 3
10 8 6 9 10 9 9 7 6 5 7 4 4 5 3 3 8 3 8 7 7 7 7 11 23 23 20 21 24 20 18 17 14 13 16 18 18 16 17 17 18 18 14 11 15 16 16 14 13 13 12 11 10 10 9 7 7 5 8 8 9 8 7 7 6 5 5 5 4 4 7 5 5 6 7 7 7 6 5 6 8 7 8 7 6 7 4 2 3 3 2 1 1 2 3 4 5
8 16 4 12 9 13 17 15 11 3 4 10 8 3 8 5 11 3 4 6 8 3 14 18 18 20 22 24 19 21 16 16 15 15 16 18 21 18 13 13 14 12 16 14 8 14 13 15 14 14 13 12 10 10 9 8 6 6 7 10 8 10 8 7 6 5 5 5 4 4 5 6 8 7 6 8 8 6 8 3 4 5 6 5 6 7 6 3 3 3 2 1 2 1 2 4 4
8 12 7 10 7 14 15 14 13 9 9 14 3 6 10 9 6 3 6 7 6 14 20 21 19 19 16 17 17 16 18 17 18 18 14 15 16 25 18 8 12 14 17 18 21 15 15 15 14 13 12 12 11 11 9 8 7 6 6 7 7 10 7 6 6 5 6 4 3 4 6 7 7 7 8 7 6 8 3 2 5 4 2 3 4 5 6 5 4 4 3 2 1 1 1 4 4
11 17 8 7 9 10 13 9 11 11 9 5 3 9 12 10 4 5 5 4 5 16 20 21 21 19 17 14 13 16 18 18 18 18 18 15 20 21 17 9 15 18 20 17 18 18 15 16 15 14 13 13 12 10 8 8 8 8 6 6 6 8 6 6 5 6 6 6 5 4 4 5 6 8 8 5 4 3 2 2 6 5 2 3 3 4 3 5 5 3 2 3 3 2 1 1 3
6 4 6 11 15 11 11 13 12 8 9 7 8 4 8 4 12 7 3 7 11 15 17 16 20 19 15 14 13 11 17 18 20 17 15 24 24 25 22 12 17 21 14 10 13 16 17 16 14 14 12 13 10 10 9 8 7 8 7 6 6 6 6 7 6 6 6 6 6 5 4 4 3 2 4 5 2 5 2 1 3 4 4 5 4 3 1 3 2 3 3 4 2 2 2 1 2
7 8 6 10 13 9 11 4 9 3 9 9 8 7 5 4 4 15 10 10 13 20 17 17 16 15 16 14 13 10 12 11 13 17 19 12 20 16 14 18 12 10 11 7 9 11 18 17 17 14 13 13 12 10 10 8 9 7 7 6 6 7 7 6 7 7 8 6 5 5 5 5 6 6 5 4 4 4 3 1 2 2 2 3 4 5 3 2 2 1 1 1 1 1 1 2 2
7 4 8 11 9 11 5 10 6 8 8 5 6 2 4 3 7 11 15 14 12 18 19 17 15 15 15 14 13 12 13 12 12 14 16 17 14 13 14 6 11 10 8 7 11 16 18 17 18 15 13 12 12 12 10 8 6 7 7 7 7 9 7 6 7 7 7 6 4 5 5 5 6 8 6 5 6 3 2 2 1 1 3 4 5 6 5 3 2 2 2 3 3 2 2 5 4
5 2 5 9 12 12 11 5 3 4 7 8 7 17 13 11 8 9 14 17 13 15 19 17 15 17 16 13 13 12 12 15 13 14 13 10 12 12 12 7 7 10 9 8 7 13 12 13 14 13 12 13 11 9 8 7 6 5 6 6 7 7 6 6 6 6 7 6 5 5 5 6 6 6 7 5 5 6 4 3 3 5 3 5 5 6 5 4 3 2 3 2 3 2 2 3 3
6 9 7 4 5 14 6 4 3 4 7 7 6 13 18 6 6 13 16 19 23 22 19 17 16 15 15 13 13 13 12 12 15 14 9 10 10 9 9 5 8 6 3 7 13 13 13 12 12 12 12 10 10 9 9 8 6 6 7 6 6 5 4 5 6 6 6 6 6 6 6 6 7 6 5 6 3 3 4 3 4 5 4 6 6 6 6 4 3 3 2 2 2 2 3 5 4
6 7 9 11 1 15 16 6 6 10 7 5 10 9 19 5 10 14 15 15 19 20 17 16 16 15 13 13 12 12 11 7 8 9 9 10 10 10 10 10 10 6 9 13 13 13 15 11 12 12 11 11 10 10 8 9 9 7 6 7 6 4 6 6 4 6 7 6 5 4 5 6 7 8 5 5 7 4 3 5 5 5 4 3 4 4 4 5 5 4 3 2 2 3 4 5 4
10 4 5 8 3 10 15 6 9 16 12 3 13 16 3 4 8 16 14 18 14 19 16 15 13 12 13 13 13 11 11 5 5 6 9 11 11 10 13 15 17 16 14 14 17 14 16 13 12 12 13 12 10 8 8 6 7 7 5 5 5 5 7 7 5 5 6 6 4 3 3 4 5 5 6 5 6 6 5 5 5 5 2 2 1 3 3 3 5 5 3 2 3 3 4 5 4
6 4 3 7 6 8 11 15 5 8 9 7 8 11 8 4 14 15 12 13 15 18 18 16 14 13 13 13 14 13 12 12 13 11 12 13 13 10 10 13 16 15 14 16 20 20 18 16 14 12 10 9 11 12 10 9 7 6 6 7 5 6 5 5 5 6 5 6 5 4 3 4 6 5 6 6 5 3 2 3 2 1 1 2 2 2 2 3 2 3 3 3 4 4 5 5 3
3 5 7 13 5 4 11 12 11 3 5 11 6 8 5 2 6 11 14 14 18 21 22 20 18 14 13 12 15 13 12 14 15 11 12 12 11 10 12 11 6 7 5 10 12 14 15 14 14 11 11 10 10 9 7 6 7 7 7 7 7 5 5 5 4 6 4 4 4 3 4 4 6 6 5 4 5 2 3 2 2 2 2 1 1 3 2 1 1 2 2 3 5 6 4 4 5
6 3 5 5 7 10 11 12 11 10 4 6 9 14 8 4 6 7 6 7 5 5 8 13 14 14 15 19 17 17 17 16 10 9 11 11 11 12 13 15 13 8 2 8 11 14 17 14 12 11 11 11 10 9 10 9 7 8 9 6 7 5 4 6 5 4 4 6 5 5 4 4 3 6 5 4 5 5 5 4 4 2 2 3 3 4 3 5 6 3 2 4 5 4 4 5 5
1 2 2 10 7 11 9 9 9 3 10 3 6 4 11 13 21 16 13 9 8 10 14 14 14 16 18 16 17 17 18 21 14 15 14 13 11 10 8 6 15 13 7 5 6 11 17 18 16 14 12 13 15 14 11 12 9 7 5 5 7 3 6 4 6 4 5 6 3 2 1 2 3 3 5 6 7 7 5 3 3 4 5 4 4 5 5 6 2 2 3 3 4 4 2 4 4
5 5 7 9 4 8 8 7 11 8 6 4 4 5 5 6 9 19 14 13 12 17 15 15 17 18 18 18 16 16 16 9 13 13 13 10 10 9 7 7 6 9 10 7 6 11 12 14 16 15 13 13 14 15 13 9 7 10 10 9 8 6 8 9 6 4 4 6 5 3 4 3 2 2 4 6 6 5 6 6 6 6 5 4 4 3 2 3 1 3 3 4 4 3 4 4 4
4 7 6 3 10 7 13 5 9 11 12 2 4 6 2 3 5 9 23 26 24 23 26 26 24 19 16 14 12 10 10 13 13 14 14 14 13 12 12 11 9 11 11 10 8 11 12 13 13 14 14 14 11 11 12 11 6 8 10 10 12 9 4 4 6 4 3 7 7 6 5 6 5 6 5 7 8 6 6 6 6 6 6 6 4 3 3 3 3 3 4 5 3 2 3 3 3
8 2 4 6 8 5 11 10 9 13 8 2 5 4 5 10 4 9 14 21 13 13 12 14 21 24 22 22 23 22 17 18 19 20 21 17 15 14 11 13 13 11 11 10 10 13 14 13 11 12 12 10 11 8 8 7 9 8 8 10 5 8 9 6 6 5 5 8 9 8 7 7 7 7 6 5 6 5 5 5 5 6 6 7 8 6 4 4 3 4 4 3 3 4 3 1 2
4 3 3 3 3 6 7 8 9 5 5 7 9 13 7 11 5 8 5 8 6 7 8 6 10 9 8 10 12 20 27 23 21 15 14 15 18 18 16 13 13 15 16 16 14 15 14 14 13 14 13 12 10 9 10 11 13 11 11 10 10 11 8 6 7 7 6 6 8 9 6 7 9 8 7 7 7 7 6 5 5 4 5 4 5 6 4 5 5 5 5 6 5 5 5 3 2
7 8 9 7 4 3 6 6 6 16 10 11 6 8 5 9 7 6 5 5 4 4 8 13 8 7 10 15 19 13 7 10 22 25 23 19 17 13 12 14 14 15 15 14 14 14 13 13 13 12 11 10 11 8 10 13 14 16 14 14 11 9 8 7 9 8 6 9 7 3 6 6 8 9 7 7 7 7 8 7 6 7 5 6 7 6 4 4 3 3 4 7 5 2 6 3 4
3 11 10 7 6 4 2 5 9 5 6 5 4 10 11 10 5 4 7 9 9 5 9 5 7 8 7 12 14 17 17 15 8 6 8 12 13 14 13 15 15 15 12 11 12 14 15 16 15 14 13 10 9 8 8 12 12 12 13 13 12 13 12 5 3 4 8 5 6 7 5 6 6 11 7 7 7 7 7 7 8 6 6 5 5 7 7 5 4 3 3 6 5 5 6 4 5
9 4 9 7 8 4 4 8 4 5 4 7 11 10 7 10 12 4 3 9 11 9 10 8 9 8 8 8 12 11 14 13 16 15 15 16 19 21 21 17 16 17 13 12 14 15 18 18 17 14 11 10 7 9 8 11 14 10 9 8 10 10 9 8 5 5 4 6 8 6 7 7 6 6 9 8 8 7 8 7 7 7 7 4 5 6 6 3 6 4 4 6 6 5 7 9 6
9 4 11 9 10 6 7 9 5 3 4 9 12 7 5 8 12 5 4 6 6 15 19 17 14 14 12 11 13 12 11 13 16 18 18 18 17 14 12 15 13 13 15 17 16 16 16 17 17 12 11 10 8 8 10 8 13 12 12 12 8 3 6 8 4 4 6 5 8 5 7 6 7 6 6 8 7 7 7 8 7 7 6 5 5 7 5 6 6 6 6 7 8 6 5 5 7
9 8 7 8 7 7 6 6 8 3 9 6 5 5 8 11 12 12 6 5 2 10 16 18 17 19 17 15 9 10 9 10 11 17 18 14 13 14 14 12 12 15 14 14 13 13 12 12 14 13 11 9 8 7 9 8 11 12 12 11 13 7 6 6 5 6 5 4 8 5 4 6 5 6 5 6 7 6 7 7 8 7 6 4 6 6 5 7 6 7 5 5 5 9 5 6 6
5 8 4 6 12 6 6 11 9 12 4 8 6 4 8 8 9 2 6 7 5 9 14 10 10 11 10 10 14 15 15 13 14 10 7 8 7 7 8 14 12 7 11 13 14 14 13 13 12 13 10 9 8 7 9 13 11 13 14 13 13 13 8 9 9 4 4 5 8 4 5 3 3 5 5 5 6 6 7 6 7 6 5 5 6 6 6 6 5 7 6 7 8 8 7 8 7
6 4 5 3 6 14 9 10 10 10 8 8 6 4 4 7 10 10 9 12 9 13 12 10 13 17 14 11 11 11 11 10 7 8 8 7 6 5 6 9 11 12 11 14 15 22 23 22 18 14 10 9 7 7 8 12 13 11 11 13 13 14 13 12 11 10 7 8 7 7 3 4 3 3 4 5 5 5 7 6 5 5 5 5 5 5 4 6 5 6 8 8 7 5 5 9 8
11 9 13 10 8 9 12 11 8 6 11 3 2 2 5 4 8 11 13 13 11 6 12 12 20 17 12 11 13 13 9 7 8 9 8 8 11 11 10 9 7 9 15 24 25 27 29 30 19 14 7 9 13 10 9 8 8 9 10 10 10 13 14 12 9 9 6 9 9 7 6 7 4 7 5 7 3 6 8 8 6 6 4 4 5 5 4 5 7 7 7 7 7 8 7 7 10
8 8 9 11 6 6 8 8 7 7 11 6 3 3 5 8 9 4 7 10 6 10 6 10 8 9 11 10 8 8 8 8 7 7 7 8 10 8 8 10 12 16 28 29 27 26 23 21 15 10 5 6 2 5 6 7 8 9 9 11 12 13 13 12 10 11 8 7 9 10 9 10 9 8 7 6 8 6 6 7 7 5 5 4 4 5 5 5 6 7 6 7 7 4 7 8 8
9 7 17 13 15 15 9 10 9 11 11 5 6 5 10 6 6 8 4 4 14 14 13 11 13 12 12 12 14 12 11 7 6 5 5 8 9 9 10 11 11 25 27 21 18 21 23 24 26 20 17 14 13 11 10 12 12 10 8 9 11 11 14 12 12 11 10 8 7 8 7 6 9 9 9 7 5 5 6 6 7 8 6 6 6 5 5 5 5 6 6 6 5 6 8 9 8
2 7 12 12 11 15 7 12 8 5 5 4 3 7 8 10 5 6 5 9 14 17 16 15 15 12 17 18 15 13 13 13 11 10 9 9 6 4 5 6 13 16 18 16 16 16 19 22 24 24 24 23 20 18 20 18 13 11 10 11 12 12 12 12 12 10 9 7 8 10 9 7 8 7 6 4 3 4 6 6 5 7 6 7 6 7 6 6 6 8 5 5 5 4 9 8 6
9 6 8 9 7 17 14 4 3 6 11 8 4 4 4 12 4 8 11 11 10 11 12 15 13 14 17 17 16 17 14 15 14 14 12 10 7 8 6 5 13 16 16 16 15 15 18 18 17 19 9 6 15 18 16 14 11 11 12 12 12 11 12 13 15 13 13 10 8 8 10 9 5 5 7 5 6 4 5 7 6 6 6 7 7 7 7 6 6 7 8 6 6 4 8 6 6
15 8 12 5 5 12 14 9 7 9 7 12 4 4 4 8 13 8 6 8 7 7 8 7 15 18 18 14 15 17 15 14 16 18 13 8 7 8 7 10 12 15 16 14 12 9 9 13 18 19 16 14 13 13 10 5 12 14 13 14 14 15 14 13 13 15 13 12 9 8 5 5 8 8 7 7 6 6 6 8 8 6 6 6 8 7 8 7 7 7 7 7 7 5 6 4 5
3 10 9 11 8 5 9 16 4 5 6 7 4 2 5 7 5 4 4 7 3 4 5 7 9 7 11 11 14 14 16 14 11 16 17 10 10 11 8 9 10 15 16 14 11 8 9 12 15 17 18 14 14 13 8 10 10 11 16 16 15 14 13 13 12 12 13 13 13 11 9 12 6 5 6 5 6 6 6 6 4 5 3 4 4 6 7 8 7 8 7 8 5 6 7 4 2
4 5 8 3 14 7 9 12 10 16 6 4 6 8 8 7 7 6 8 6 9 9 6 5 5 4 4 7 8 9 11 12 13 12 13 6 7 9 9 8 11 14 15 14 12 9 9 9 10 7 6 9 13 13 13 11 12 12 12 12 12 14 13 13 13 13 12 11 13 13 13 7 11 8 8 7 7 6 6 5 3 2 3 3 3 3 4 6 8 9 9 9 6 7 7 6 3
9 12 7 4 10 5 12 5 4 10 16 11 10 4 8 9 8 8 10 12 11 11 10 5 7 6 5 4 7 10 10 11 11 11 10 6 7 9 9 8 9 8 7 9 11 11 9 8 8 8 12 11 10 11 11 6 10 10 10 10 10 9 10 10 10 10 12 12 11 12 13 13 7 9 9 8 7 6 6 7 8 8 7 6 6 6 4 4 5 5 5 7 6 6 8 6 7
5 8 4 8 12 9 5 8 5 7 13 13 14 11 13 15 5 6 9 11 16 14 17 13 8 9 8 8 6 8 9 7 8 7 7 7 6 7 6 7 7 10 9 10 8 8 8 8 9 10 10 10 12 9 9 8 4 5 6 7 6 5 7 8 10 6 6 5 7 8 7 6 12 13 11 13 11 10 11 10 11 11 9 9 7 7 4 4 6 4 4 4 8 6 6 6 6
Wind_Speed
3 1 1 2 1 2 2 3 2 3 2 4 3 1 3 1 4 3 5 2 1 3 4 1 1 4 1 2 8 7 9 3 0 8 5 2 6 9 11 13 13 11 10 8 7 7 8 10 11 11 11 13 13 12 13 15 15 16 16 16 15 15 15 16 17 16 16 17 18 17 18 17 17 17 16 16 16 15 15 16 16 16 16 15 15 14 14 14 15 15 15 14 13 13 14 15 16
3 0 2 1 1 1 1 1 3 1 4 3 7 2 4 2 3 4 7 1 3 1 1 5 10 13 12 11 10 2 9 9 2 3 4 6 9 7 11 13 12 13 10 8 8 8 8 9 11 11 11 13 13 12 14 14 15 15 15 15 15 14 14 14 15 15 15 15 16 16 17 17 16 16 15 15 14 12 12 13 15 16 15 15 15 14 13 14 15 14 13 13 13 13 13 14 15
1 1 2 3 3 3 1 2 1 0 2 4 7 5 2 4 4 5 8 3 5 7 4 8 7 4 2 1 6 3 1 6 8 6 6 9 11 4 9 10 10 10 10 8 8 9 8 9 12 11 11 12 13 12 13 14 14 15 15 14 14 14 14 14 14 15 15 15 15 16 15 15 15 14 15 15 13 13 12 11 13 15 15 14 14 14 14 12 12 11 11 11 13 13 12 13 14
1 3 3 2 0 3 2 3 4 7 3 6 4 5 4 2 3 2 5 3 7 7 4 3 3 2 3 8 5 6 6 4 2 6 6 6 3 8 10 11 10 8 7 6 8 8 8 13 14 13 12 11 13 13 14 13 13 14 14 13 14 14 15 14 14 14 15 15 15 15 15 14 15 15 15 15 14 14 13 12 11 13 13 12 12 13 14 13 12 11 10 12 13 13 12 12 13
1 1 2 2 4 1 1 1 3 3 5 5 4 4 4 5 6 5 5 3 3 2 2 1 4 4 2 5 1 2 2 7 8 2 4 5 9 10 12 12 10 10 9 8 7 8 8 16 15 12 12 12 12 13 13 13 13 14 14 14 13 14 15 15 15 14 15 14 15 14 14 14 15 15 15 14 13 12 13 12 9 8 9 9 8 11 13 12 12 11 10 9 10 11 11 11 11
4 3 2 1 0 2 4 1 1 4 8 4 1 5 3 6 3 4 1 3 4 4 1 2 2 4 4 3 2 3 2 4 5 4 5 8 12 11 12 11 11 10 9 8 7 7 9 15 15 14 13 12 12 13 14 13 13 13 14 13 14 14 14 15 14 14 14 14 14 14 14 14 15 15 15 14 13 12 11 9 8 9 10 9 9 12 13 12 11 10 9 8 9 9 10 10 10
0 3 3 3 1 3 4 2 6 6 8 5 2 5 8 11 7 7 3 0 1 4 3 1 8 10 6 1 2 6 4 6 5 5 4 11 12 10 11 10 12 11 10 7 6 7 12 15 14 13 13 13 13 13 14 14 13 13 13 13 13 14 14 14 14 14 14 14 14 14 14 14 14 13 13 14 13 13 10 8 10 9 8 8 11 13 13 12 11 10 8 7 7 8 9 9 9
1 1 1 2 1 1 0 2 6 4 5 5 2 4 9 10 8 2 8 0 2 3 1 4 2 6 1 3 3 5 8 3 8 10 12 11 11 10 10 11 10 11 9 6 6 2 15 17 15 13 12 12 13 14 14 14 14 12 12 11 11 11 13 14 14 13 12 13 14 13 13 13 13 13 13 13 12 11 11 11 10 10 10 12 13 13 13 12 11 9 8 7 6 7 7 8 9
3 4 0 5 1 1 1 4 5 2 6 4 7 9 13 12 10 5 8 3 0 2 6 2 1 6 2 8 4 2 5 6 12 13 11 11 11 10 8 10 11 9 9 7 6 5 3 14 12 13 13 12 12 13 13 14 12 12 11 11 10 10 10 12 14 12 11 11 12 13 12 13 13 12 12 12 12 12 12 11 10 10 11 12 13 13 13 12 10 9 8 6 5 6 7 8 8
1 1 1 2 3 2 2 7 0 3 2 5 6 13 11 9 6 6 10 3 5 8 1 4 2 8 9 9 3 4 2 6 13 11 10 10 10 9 9 9 10 12 11 8 8 7 7 12 11 11 11 12 11 12 12 12 13 12 12 11 10 10 10 11 11 11 12 12 11 11 12 12 13 12 12 12 12 12 11 11 10 10 11 12 12 12 12 11 9 9 7 6 6 6 7 7 7
0 4 2 3 1 0 3 6 2 6 5 5 9 12 13 11 6 8 5 3 4 5 6 8 10 10 8 4 3 1 4 7 13 13 11 11 10 11 10 9 9 10 12 11 10 8 8 7 11 10 11 11 11 11 11 11 10 10 11 10 10 10 11 10 11 12 12 13 13 12 12 12 12 12 11 12 12 11 11 11 11 11 10 11 11 11 10 10 9 8 6 5 5 6 6 7 6
1 0 1 2 2 4 5 2 3 8 8 5 5 7 4 7 1 1 6 9 3 4 3 3 6 8 8 4 2 2 6 6 5 10 10 9 10 10 11 8 8 6 7 10 9 8 9 8 8 11 11 11 10 10 10 10 10 10 11 11 11 11 11 11 11 12 12 12 12 12 12 12 12 11 10 10 11 11 11 11 11 11 11 11 11 10 9 9 8 7 6 5 5 5 6 5 6
3 1 5 3 2 1 3 0 4 4 4 6 3 7 8 6 0 5 4 8 5 5 2 3 16 4 5 5 2 3 7 6 5 8 9 8 8 8 8 8 7 7 7 8 9 9 8 7 7 7 9 14 12 10 10 11 11 11 11 11 11 11 11 11 12 12 12 12 12 12 12 11 11 11 10 10 10 10 10 10 10 11 11 11 11 10 9 8 8 7 6 5 4 4 5 5 5
2 5 3 1 0 2 1 1 1 2 5 4 4 5 7 2 1 4 9 8 2 1 1 13 7 10 6 5 1 4 5 7 7 7 6 7 7 8 9 8 8 7 7 8 8 8 7 6 5 6 8 7 7 10 9 11 10 10 11 11 11 11 10 11 11 11 11 11 11 11 11 11 11 10 9 9 9 8 8 8 8 10 10 10 10 9 8 8 7 6 5 4 4 3 3 4 5
1 1 2 1 1 0 2 2 2 2 6 3 6 6 10 3 2 4 5 8 3 2 7 3 5 5 6 11 4 8 9 11 9 7 8 8 9 9 10 8 8 8 7 7 8 8 7 6 6 5 6 6 6 4 4 6 9 9 10 11 11 11 10 12 13 10 11 11 11 11 10 11 11 11 10 9 8 7 9 9 7 9 10 9 9 8 7 7 6 6 5 3 1 1 2 3 4
3 3 2 1 3 3 3 1 1 1 6 2 7 6 3 3 3 2 3 2 3 3 3 2 0 1 7 14 12 14 14 11 9 10 10 11 9 9 9 8 7 7 8 7 9 7 7 7 5 6 6 6 5 4 3 3 7 8 9 11 11 10 10 11 11 10 11 10 10 9 9 7 8 7 11 7 9 7 7 5 8 8 9 9 9 8 8 7 6 6 5 3 1 1 1 3 5
1 2 0 1 5 2 3 3 3 0 6 5 6 7 6 3 3 3 3 6 14 2 3 3 3 2 13 2 8 16 13 11 11 13 12 10 9 8 7 6 6 6 5 6 6 7 7 6 6 5 6 7 6 4 2 3 5 9 8 9 11 11 10 12 11 11 9 8 8 8 6 4 3 3 5 4 8 4 6 7 8 8 8 8 8 8 7 7 6 5 4 3 1 2 2 4 5
2 1 2 3 4 2 4 2 3 2 3 6 7 4 6 5 5 1 6 9 5 6 6 2 9 9 7 4 15 14 12 13 13 13 11 10 9 9 8 7 7 6 6 6 6 6 5 5 7 6 5 6 5 3 1 2 3 6 3 4 5 8 8 8 6 5 6 4 8 5 4 4 5 3 3 5 3 3 4 6 7 8 8 8 7 7 7 6 6 6 5 4 2 1 2 2 2
3 1 2 8 3 5 4 2 3 1 8 5 5 3 1 0 2 0 3 0 1 5 3 4 9 9 12 12 15 14 13 12 14 12 13 12 10 13 12 9 9 9 7 7 6 7 5 4 4 5 6 5 5 2 1 1 4 4 3 4 5 7 7 6 4 5 4 4 4 3 4 4 3 4 3 4 2 5 3 6 7 8 7 7 7 6 6 6 5 4 4 2 1 2 2 2 2
3 4 5 6 5 3 3 3 4 4 5 7 7 6 3 5 1 1 3 3 2 7 6 1 4 11 11 12 13 12 10 11 12 13 11 10 10 10 10 11 9 8 8 8 8 6 7 5 2 4 7 6 4 3 1 2 3 4 4 4 4 4 5 4 4 4 3 3 4 3 4 3 3 2 5 8 6 3 3 4 7 8 8 7 7 4 5 4 4 4 2 2 3 3 3 3 4
2 2 5 3 3 2 5 5 9 9 4 4 5 5 7 5 2 1 5 6 2 4 4 7 11 13 13 13 13 11 10 10 11 11 11 11 9 8 8 9 9 6 7 8 7 9 9 8 6 6 7 6 6 4 4 3 3 4 4 4 4 4 4 3 3 3 3 3 3 4 4 3 3 4 3 3 2 3 3 3 3 3 3 3 5 2 1 1 1 2 3 3 2 2 3 3 3
2 6 4 5 1 2 10 7 7 3 3 2 5 4 4 3 1 2 6 2 4 7 7 5 13 16 19 17 13 12 11 11 11 10 8 5 8 9 7 8 8 8 9 8 8 8 9 9 8 6 6 7 6 5 5 5 5 4 5 4 4 3 4 3 2 3 3 3 3 4 4 4 3 3 3 3 2 2 2 3 3 2 3 3 3 3 2 1 2 2 2 2 2 2 2 2 2
3 4 3 5 5 4 5 4 2 3 2 2 2 3 1 2 4 1 4 4 3 5 3 6 9 13 13 14 15 13 11 11 10 9 11 8 9 6 4 4 8 9 8 6 5 7 9 9 8 8 7 7 7 6 5 4 4 4 4 4 5 4 3 4 3 2 2 2 2 3 4 3 3 4 4 3 4 4 3 2 4 3 3 2 2 3 2 1 2 2 1 1 1 1 2 2 3
4 5 1 7 4 7 10 9 9 2 3 6 3 2 4 3 7 1 0 3 5 1 10 12 13 13 15 14 11 12 9 10 10 10 10 11 10 8 3 1 4 3 7 8 2 4 7 9 9 9 8 7 6 6 5 4 4 4 4 5 4 5 4 4 3 2 2 2 2 1 2 3 4 4 4 4 4 2 2 1 2 2 2 1 1 1 2 1 2 2 1 1 1 1 1 2 2
4 4 4 5 4 8 10 9 8 5 6 7 2 3 7 7 3 2 3 5 3 8 14 15 13 13 10 12 11 9 11 11 12 12 9 7 11 9 8 1 1 1 4 10 11 8 9 9 9 8 8 8 6 6 5 4 4 4 3 4 4 5 4 4 4 3 3 2 2 2 2 3 3 3 3 3 2 1 0 1 3 1 0 0 1 1 2 2 1 1 1 1 0 1 1 3 3
5 9 2 4 5 7 8 6 7 8 4 3 1 6 8 7 3 2 3 3 4 9 13 15 14 13 12 9 9 9 10 10 12 12 12 9 13 15 5 6 5 12 11 7 10 10 9 10 10 9 8 8 6 6 4 4 4 4 4 4 4 4 4 4 3 3 3 3 3 3 3 3 3 3 3 1 2 2 1 1 2 2 1 2 1 1 0 1 1 0 1 1 0 0 0 1 2
3 3 4 6 9 6 6 6 7 5 5 5 4 3 5 1 7 2 2 4 8 10 12 11 14 13 11 9 8 8 11 12 13 10 9 11 15 15 14 8 11 14 9 6 4 4 8 10 9 8 8 7 6 6 5 4 4 4 3 3 3 4 4 4 3 3 3 4 4 3 3 3 2 1 2 1 1 3 1 0 1 2 2 2 2 1 1 0 0 0 0 1 1 0 1 1 1
4 4 4 6 7 5 7 3 6 2 3 6 6 4 2 0 1 6 6 6 9 14 11 11 10 9 10 10 9 7 8 7 7 11 13 7 5 9 8 10 8 7 7 3 3 4 5 9 9 8 8 7 6 5 5 4 4 4 4 3 3 3 4 3 4 3 4 4 3 3 3 3 4 2 3 2 2 2 2 1 0 1 1 1 2 2 1 1 0 0 0 1 1 0 1 2 1
4 1 3 7 6 3 3 5 4 5 3 3 4 0 2 0 4 5 9 9 8 12 13 11 9 9 10 9 8 6 7 7 7 8 9 9 6 8 8 4 7 6 3 3 4 6 5 7 8 7 6 6 6 6 5 3 3 3 4 3 3 4 3 3 4 3 3 3 2 3 3 3 3 3 3 3 3 2 2 1 1 1 2 2 2 3 3 1 1 0 1 1 2 1 1 3 3
2 1 1 6 7 6 5 2 1 3 2 6 5 6 7 6 5 4 9 11 9 10 12 11 9 9 9 8 7 6 6 7 8 8 7 6 8 8 6 4 4 5 4 2 1 6 4 4 5 5 6 6 6 4 4 4 3 3 3 3 3 4 3 3 3 3 3 3 3 3 3 4 3 3 4 3 3 3 2 2 1 2 1 3 3 3 3 1 1 0 1 1 1 1 1 2 1
2 2 3 0 3 4 3 1 1 1 3 5 4 6 9 4 3 6 9 13 15 14 13 11 10 9 9 8 7 7 8 6 8 6 5 6 5 5 5 2 2 3 1 3 7 8 7 5 5 5 6 6 5 5 5 4 3 4 4 3 3 3 3 3 4 4 3 4 4 4 3 4 4 3 3 3 2 2 2 1 1 2 1 2 3 3 3 2 1 1 0 0 1 1 2 2 2
2 2 3 4 0 7 10 4 4 4 2 3 6 4 9 3 6 9 10 9 13 14 11 10 9 7 8 7 6 6 5 3 2 3 5 6 6 6 6 6 7 4 6 7 5 8 9 7 7 7 7 7 6 6 4 4 4 3 3 4 3 3 4 3 3 4 4 3 2 3 3 3 3 3 3 2 2 1 2 2 2 2 2 2 1 1 2 2 1 2 1 1 1 2 2 2 2
4 2 2 4 0 4 8 2 5 11 5 1 7 6 1 1 4 9 8 10 8 12 11 9 9 8 7 8 7 6 6 3 2 3 4 7 7 7 8 10 11 11 9 6 7 8 10 9 7 8 8 8 7 5 4 3 3 3 3 3 3 3 3 3 2 4 4 3 1 2 2 3 3 3 3 3 2 1 1 2 2 1 1 0 1 2 1 1 2 2 1 1 1 2 2 3 2
2 1 1 3 2 3 4 8 4 3 5 2 3 4 2 1 7 8 7 9 11 11 12 9 8 7 7 6 6 6 6 6 7 7 6 6 7 6 4 3 5 7 8 8 9 12 11 10 8 7 6 6 7 7 5 5 3 4 4 3 3 4 3 2 2 3 3 4 2 2 2 3 3 3 3 3 3 2 1 2 1 1 1 1 1 1 0 2 2 2 2 1 1 1 2 3 2
1 2 3 6 1 2 6 4 5 1 2 6 1 4 3 2 4 7 8 8 10 13 12 11 9 8 7 5 6 8 8 8 8 5 6 6 6 6 7 8 3 1 1 1 4 5 8 8 8 7 7 6 6 6 4 4 4 5 4 3 4 3 3 2 2 3 3 3 4 3 2 2 3 3 2 2 3 2 2 1 2 1 1 1 0 1 0 0 0 1 1 1 2 2 1 2 3
2 2 3 2 4 4 4 5 4 3 0 3 6 5 3 2 5 4 3 4 3 2 5 7 7 7 6 8 8 8 10 10 6 6 7 6 6 8 6 7 7 4 1 1 3 6 9 8 7 7 7 7 6 6 6 5 4 5 5 4 4 3 3 3 2 2 3 3 3 2 3 2 3 4 3 2 3 2 2 1 1 0 1 1 1 2 1 2 2 0 1 2 2 2 2 2 2
1 1 1 6 4 6 5 4 5 0 4 1 2 3 7 8 11 9 9 6 3 6 7 8 8 9 9 9 9 10 11 12 8 9 9 8 7 6 6 4 8 9 5 3 3 5 7 10 9 9 7 8 8 7 6 6 5 3 2 2 4 1 3 3 3 2 3 3 2 1 1 1 1 1 3 4 4 4 2 1 1 2 2 1 2 3 2 2 0 1 1 1 2 2 1 2 1
3 2 3 5 3 4 4 2 4 5 1 3 2 4 3 3 6 10 8 8 7 11 10 9 10 10 10 10 9 8 6 2 5 6 8 7 6 6 3 4 4 6 6 5 4 4 4 9 10 9 7 8 8 9 7 5 3 5 5 4 3 2 3 5 3 2 3 3 3 2 3 2 2 1 1 2 2 3 3 3 2 2 2 2 2 2 2 1 0 1 2 1 1 1 2 2 1
1 3 3 1 5 4 8 3 6 5 3 0 1 5 0 1 1 3 12 16 12 13 16 15 14 12 9 8 8 7 5 5 6 7 7 8 8 7 6 5 5 7 7 7 5 5 7 8 8 9 8 8 6 6 7 6 3 4 5 3 5 3 1 1 3 1 1 3 3 3 3 4 4 4 3 3 3 3 3 3 2 2 3 3 2 1 1 1 1 1 2 2 1 1 1 1 1
4 0 1 3 3 2 4 5 6 8 3 0 2 2 2 6 1 3 5 2 2 6 6 7 11 15 14 14 14 13 10 11 12 12 12 9 7 7 6 7 7 5 5 5 6 7 7 8 7 8 8 7 7 5 5 4 5 5 5 6 3 3 4 2 3 3 3 4 5 4 4 4 5 5 4 3 3 3 3 2 3 4 4 2 3 3 1 1 1 1 1 1 2 2 1 0 1
2 2 1 1 2 2 3 3 4 2 3 4 5 7 2 6 1 2 3 2 3 2 4 2 3 4 4 2 3 9 15 14 12 9 8 8 9 10 10 8 7 7 7 7 7 7 6 9 8 9 8 7 6 6 6 6 8 7 6 5 5 6 5 3 4 4 3 3 4 5 4 4 5 5 4 4 4 4 3 3 3 3 3 2 2 2 2 2 2 2 3 3 3 3 3 1 1
3 5 5 4 3 2 3 2 1 7 1 6 3 2 1 5 4 4 2 1 1 1 5 7 4 5 6 9 10 6 4 6 14 16 14 11 9 7 6 8 7 5 7 6 7 7 7 7 8 7 6 6 6 5 7 7 6 7 7 7 6 5 5 4 5 4 3 4 4 1 4 4 5 5 4 4 4 4 4 4 4 4 3 4 4 3 2 2 1 2 2 3 2 1 3 2 1
0 5 6 4 3 3 0 2 4 1 2 3 2 3 2 5 1 2 4 4 4 0 5 3 5 5 5 6 6 9 9 8 5 4 5 7 7 7 6 8 8 8 7 6 6 8 8 9 8 8 7 6 5 5 5 7 6 5 5 6 6 6 6 0 1 1 5 3 3 4 3 4 4 7 4 4 4 4 4 4 5 4 4 3 3 4 3 3 2 1 2 3 2 2 3 2 2
3 1 6 5 5 2 2 4 2 1 1 2 7 4 2 1 3 3 2 5 5 5 5 5 6 6 5 5 7 7 8 8 8 8 7 9 10 12 13 10 10 10 8 7 7 7 9 9 8 7 6 6 4 5 5 6 8 5 5 5 5 6 5 4 1 1 2 3 5 3 4 4 4 4 5 4 4 4 4 4 4 4 4 3 3 5 3 2 3 3 2 2 3 2 3 4 2
3 3 5 5 5 4 5 5 3 1 1 4 6 4 1 1 3 3 1 4 3 8 9 9 9 7 5 6 8 8 6 6 8 9 11 11 11 9 7 9 8 8 9 10 9 8 7 6 7 7 7 6 5 5 6 5 8 7 7 7 4 2 3 5 2 2 3 2 5 3 4 4 4 4 4 5 4 4 4 5 4 4 4 4 3 5 3 3 4 4 3 3 4 3 2 3 4
5 5 4 4 5 5 3 3 5 1 4 2 2 2 1 3 6 5 1 3 1 5 8 9 9 9 9 8 6 7 6 6 6 8 7 8 8 9 8 6 7 9 8 8 8 7 7 6 6 8 7 5 5 5 5 5 7 7 7 6 7 4 3 4 4 4 2 2 4 3 3 4 3 3 2 3 4 4 4 4 5 5 4 3 3 4 4 4 4 4 3 3 3 5 3 3 3
4 4 3 3 7 3 3 6 3 5 1 2 3 2 3 1 3 0 3 2 2 5 8 5 4 4 4 6 9 9 9 8 7 5 4 4 3 4 5 9 8 5 6 7 9 8 7 8 6 7 5 5 5 5 5 8 6 7 7 7 8 7 5 5 5 3 2 3 4 3 4 2 1 2 1 2 3 3 4 4 4 4 4 3 3 4 4 4 3 4 3 4 5 5 4 4 4
3 1 2 1 1 7 3 4 5 3 2 3 4 1 1 2 3 5 5 5 5 7 8 7 8 11 9 7 7 7 7 5 4 4 4 4 4 3 4 6 7 7 6 3 5 11 13 12 9 6 3 5 4 4 4 5 5 4 5 8 8 8 8 6 7 6 4 4 4 4 1 2 1 1 1 2 3 3 4 4 3 4 3 4 4 3 3 4 3 3 4 5 4 3 3 5 4
6 5 7 5 2 3 3 4 1 1 4 1 1 1 2 1 2 6 8 7 5 4 8 7 7 11 8 7 7 7 5 5 5 4 4 4 6 6 6 6 4 4 8 14 14 17 13 7 5 4 3 3 4 3 3 3 4 5 6 6 6 7 7 7 6 6 4 5 3 3 3 4 2 2 1 3 2 4 4 5 4 4 3 3 3 3 3 4 4 5 4 4 4 5 4 4 6
5 4 4 5 1 1 2 1 0 2 5 4 2 1 1 2 4 2 4 6 3 3 2 4 4 2 4 5 5 4 4 5 4 4 4 5 5 5 5 6 5 8 13 12 13 13 14 12 11 7 4 2 2 3 4 5 6 6 6 6 7 6 6 7 6 7 5 4 4 4 5 5 5 5 4 4 5 4 4 4 4 4 3 3 3 3 4 3 4 5 4 5 4 3 4 5 5
4 2 9 7 7 4 2 3 2 5 6 2 3 1 2 3 2 3 3 2 5 6 6 6 8 8 7 8 9 8 7 5 4 2 1 2 3 5 5 4 5 12 11 8 8 10 12 14 14 12 11 10 9 8 7 8 7 6 5 6 7 7 7 7 6 6 6 5 4 4 4 3 5 5 5 4 3 3 4 4 5 5 4 4 4 4 3 3 4 4 4 4 3 3 5 5 5
0 3 6 6 5 7 1 4 3 2 1 1 0 1 2 3 2 3 3 2 6 8 10 10 8 7 9 10 9 8 7 8 7 6 6 6 4 3 2 1 8 9 10 8 9 9 10 11 13 15 15 14 13 12 12 11 8 7 6 7 8 8 6 6 5 4 5 4 4 5 5 4 5 4 4 2 3 2 4 4 4 5 4 4 4 5 4 4 4 5 4 4 4 2 6 5 4
2 3 3 4 2 9 6 2 1 4 4 2 1 1 2 6 2 4 6 5 7 7 7 10 8 7 9 9 9 10 9 8 8 8 7 6 5 4 3 4 7 8 8 8 8 9 11 10 6 7 5 4 9 11 6 6 7 7 8 8 7 6 7 7 8 8 8 6 5 4 5 5 3 3 4 3 3 2 2 3 3 4 4 4 5 5 5 4 4 4 5 4 4 3 5 4 4
6 2 5 2 3 6 6 2 3 4 2 3 2 1 1 2 2 4 3 4 4 5 5 5 10 12 7 7 8 9 10 6 4 8 8 5 4 4 5 6 8 8 8 7 7 5 5 8 13 12 9 9 6 3 5 4 7 10 8 7 7 8 8 7 7 9 7 7 5 4 2 2 5 5 3 3 2 2 1 1 2 2 1 2 4 4 5 5 4 4 4 4 3 3 4 3 3
2 3 3 3 1 1 3 5 0 1 1 1 2 1 2 3 2 1 2 4 2 3 3 4 6 4 3 4 9 8 9 8 6 6 7 6 6 6 5 6 7 8 7 6 5 4 5 7 8 11 12 6 9 5 4 6 7 6 9 10 10 8 7 7 6 6 7 7 7 6 5 7 4 3 3 3 2 1 1 1 0 1 1 1 1 2 3 4 4 5 4 5 3 3 3 3 1
1 2 3 1 4 2 3 3 4 6 2 2 2 3 2 3 2 4 5 4 4 5 4 4 4 3 2 3 5 5 5 6 8 6 6 5 2 3 4 5 7 8 7 4 4 2 4 5 7 5 4 6 9 9 8 7 6 4 5 6 7 7 7 7 7 6 6 6 6 7 7 5 7 4 4 3 2 1 1 3 2 2 3 2 2 2 3 4 2 3 4 5 4 4 4 4 2
3 5 3 2 3 1 5 1 1 4 5 4 3 1 3 3 4 5 7 7 6 7 6 4 4 4 4 3 4 4 5 6 6 7 6 4 4 4 5 6 6 4 3 3 3 3 4 5 4 5 7 6 6 7 6 2 3 3 3 4 4 4 5 5 5 6 6 6 4 4 6 7 4 5 5 5 4 4 4 5 5 5 4 4 3 3 2 2 3 2 2 3 4 4 5 4 4
2 3 1 4 4 4 2 3 2 2 4 3 5 3 6 7 2 3 5 5 7 6 10 7 5 6 5 5 4 5 6 5 5 5 5 4 4 5 4 5 5 6 4 4 3 3 4 5 5 5 4 6 6 6 5 3 2 2 5 5 4 4 4 4 4 3 1 2 4 3 4 3 5 6 5 6 5 4 3 3 4 4 4 4 4 3 2 3 3 3 2 1 4 4 4 4 4
Wind_Direction
259 283 168 165 84 102 60 5 146 303 75 249 291 210 251 255 242 338 271 314 140 278 293 286 58 60 107 168 136 109 24 105 234 142 213 202 135 124 121 125 130 125 128 130 122 124 132 137 135 134 131 129 128 127 129 129 128 125 122 119 119 118 117 118 119 118 117 120 122 123 124 122 121 120 119 120 121 123 125 124 122 120 118 118 115 111 111 113 114 116 113 110 108 109 109 112 114
251 336 71 142 93 81 225 122 97 352 34 353 248 126 252 276 9 230 258 191 214 165 63 89 72 82 90 113 137 118 34 35 32 105 97 108 107 105 128 128 131 127 128 127 123 125 129 138 134 130 130 134 134 133 131 130 130 128 125 122 122 122 120 117 118 118 117 118 119 120 121 121 120 120 120 121 120 112 113 122 125 124 121 120 118 112 108 108 111 111 111 111 107 108 108 110 111
261 54 34 29 22 80 103 39 225 90 118 236 273 210 301 316 231 271 265 197 160 148 111 85 76 57 46 73 46 45 214 83 88 84 99 124 118 121 118 114 112 116 122 122 122 120 124 132 130 131 132 137 138 134 133 133 132 131 131 126 125 124 122 120 119 117 118 120 121 121 120 120 120 119 118 116 108 109 113 118 123 122 121 120 119 115 108 103 98 97 100 110 112 107 108 110 110
89 36 133 72 118 21 75 31 89 127 171 220 313 263 224 204 229 276 330 193 160 160 160 164 73 293 124 76 123 83 97 100 92 127 123 140 116 131 118 113 110 104 102 110 118 120 128 137 134 133 137 140 139 137 139 137 137 134 133 130 129 128 124 123 122 121 121 122 123 122 122 120 118 116 117 116 117 120 121 121 122 121 118 118 116 114 114 111 108 104 101 103 102 102 105 110 108
63 7 88 99 110 2 104 182 146 106 231 193 198 268 247 255 280 36 347 320 225 240 342 198 85 1 83 99 74 94 136 104 143 88 102 99 125 134 122 116 114 112 112 111 111 116 128 135 132 131 138 141 141 144 144 142 139 137 135 134 133 130 127 125 124 123 124 124 122 122 123 122 122 122 122 121 122 123 126 127 118 98 104 113 108 108 112 114 112 108 105 101 102 104 104 104 99
64 55 3 91 96 187 53 58 257 205 228 135 205 260 247 253 294 339 351 57 312 273 295 295 152 164 40 14 12 67 7 147 143 76 129 139 133 128 121 119 111 110 115 117 123 128 131 130 131 129 138 142 145 148 147 146 144 141 138 137 136 132 129 126 126 127 127 127 126 126 127 126 126 124 125 126 123 123 120 112 109 110 111 116 109 117 116 113 112 110 109 110 107 108 109 109 103
269 43 357 25 11 59 162 160 224 215 265 161 236 283 290 297 296 319 272 354 142 315 338 319 108 105 84 310 49 22 320 234 132 143 125 130 123 123 124 120 119 120 121 119 116 132 132 129 129 130 139 147 148 149 150 149 147 143 141 139 139 136 131 129 128 129 132 132 132 132 132 131 129 127 128 129 127 124 122 118 114 108 117 116 112 119 116 116 113 111 111 110 108 107 106 102 96
75 120 279 107 227 48 211 209 247 161 270 185 233 283 285 276 279 297 291 151 235 188 63 171 18 86 10 341 114 5 15 20 93 96 113 121 125 128 128 125 115 116 115 103 101 121 133 129 132 136 140 146 152 152 150 149 147 144 142 138 134 130 129 129 128 130 135 138 138 138 136 132 131 132 130 130 127 124 125 124 119 115 115 113 119 121 118 118 116 117 119 119 117 108 98 90 81
350 84 299 74 83 30 22 236 251 220 275 286 265 229 255 260 266 254 260 193 269 96 162 222 349 78 138 72 55 36 46 71 96 110 113 124 128 130 125 123 121 121 111 107 105 94 97 119 131 134 140 148 154 152 151 150 147 145 143 140 134 127 122 127 131 132 134 136 138 139 138 134 131 129 128 127 126 124 125 124 118 118 117 119 122 121 121 122 121 120 125 129 115 99 87 83 79
26 80 211 144 132 228 349 289 33 249 243 244 268 287 276 269 264 218 250 227 187 134 148 31 77 108 122 96 98 34 88 104 112 109 124 132 132 127 122 120 124 123 117 118 116 116 119 126 132 135 139 146 149 153 152 151 150 148 148 142 135 127 123 125 130 131 130 134 138 141 140 134 131 129 128 130 126 123 123 120 120 122 121 123 124 124 124 123 124 127 128 126 108 94 89 83 74
21 4 146 74 35 248 238 271 272 304 278 310 297 264 258 270 262 259 204 181 135 130 144 100 70 107 102 65 46 346 128 127 131 142 146 140 135 133 124 125 127 131 133 130 126 118 117 121 140 139 141 142 147 151 146 147 145 146 144 138 131 125 124 127 129 129 135 141 141 138 132 130 129 128 128 126 127 126 124 124 127 129 128 127 123 123 122 125 126 128 125 113 98 92 85 77 66
27 67 24 108 178 167 237 205 299 283 295 300 279 294 301 302 306 169 150 127 130 132 183 153 145 127 77 110 118 128 140 144 149 139 141 138 135 133 130 131 126 125 121 124 121 126 124 136 147 147 141 138 140 143 142 143 147 148 141 133 128 128 130 131 130 134 138 138 136 132 131 130 130 128 125 127 129 129 129 130 130 133 133 133 129 126 125 126 128 127 124 115 102 90 77 68 56
126 128 84 91 226 142 223 45 265 284 323 292 242 305 317 306 314 201 123 103 132 140 143 156 141 129 116 148 102 124 147 154 156 144 141 138 132 128 123 115 107 110 114 109 115 115 117 134 147 141 139 143 143 139 144 150 155 149 137 130 129 132 134 132 134 137 138 136 133 130 131 133 133 129 126 127 128 130 128 127 131 132 133 134 132 131 130 131 132 134 132 125 113 89 75 63 55
116 178 124 237 86 211 213 207 299 351 297 258 279 277 316 293 282 167 117 106 163 107 59 135 116 110 90 104 191 177 174 163 153 146 129 118 115 112 111 108 109 108 101 107 110 113 117 133 132 137 136 127 139 143 149 162 156 142 134 131 132 132 130 132 132 133 133 132 129 131 133 135 132 129 125 124 123 115 115 120 124 129 130 133 135 134 136 135 136 137 134 128 120 100 82 56 49
229 186 84 121 282 15 258 120 209 151 269 321 288 333 333 316 51 5 94 109 2 115 111 37 168 89 200 166 205 197 172 165 151 131 115 112 110 110 114 116 116 109 98 119 115 122 125 131 135 130 118 123 127 133 155 164 151 136 129 128 128 128 126 132 134 130 130 131 134 136 138 138 136 133 129 123 110 108 118 116 116 128 133 138 139 143 143 142 138 136 137 125 116 89 70 49 39
186 88 89 128 256 185 280 112 207 130 268 281 296 310 334 324 19 46 308 163 118 93 77 155 285 208 166 181 182 162 157 154 142 127 121 114 111 111 119 125 121 123 134 132 125 128 135 139 135 126 122 127 126 135 155 151 147 128 128 129 128 128 128 130 127 130 134 133 136 135 139 140 140 134 130 121 117 104 98 105 120 134 142 145 149 151 154 153 147 146 140 142 176 302 14 30 33
68 76 10 87 265 168 261 175 145 176 263 281 308 2 39 310 328 89 19 64 121 127 56 11 310 349 169 202 135 130 141 140 133 130 126 127 128 129 126 127 123 122 124 118 109 130 128 132 129 123 132 127 130 137 153 134 146 133 128 127 128 130 133 135 134 133 134 133 127 114 81 76 88 100 107 111 119 91 111 121 136 144 152 153 157 161 159 159 158 147 147 158 175 284 355 25 35
80 147 126 265 202 195 220 171 175 189 256 298 337 334 31 355 344 82 46 33 63 67 43 6 38 40 80 75 111 122 134 138 141 138 141 140 144 142 140 140 134 124 123 114 104 110 117 121 141 130 128 132 125 114 137 120 127 124 110 119 121 125 130 123 113 91 97 76 109 92 79 85 83 77 96 116 95 113 121 134 149 155 159 162 166 165 165 165 164 164 161 167 183 270 319 51 37
138 129 124 231 180 235 181 197 236 315 277 278 288 310 9 238 247 64 84 232 55 63 36 51 78 68 81 95 114 129 142 142 145 146 146 151 155 152 149 145 139 142 141 124 121 108 77 73 126 143 136 123 115 98 87 144 97 92 93 102 117 126 123 103 85 92 74 89 76 80 79 79 85 97 94 100 117 127 150 156 162 164 165 168 170 171 172 179 177 167 172 156 112 331 7 14 9
231 130 240 245 212 232 242 220 247 216 255 298 317 309 8 281 180 270 139 132 42 137 144 52 96 120 117 119 121 135 140 141 143 146 150 151 150 149 147 146 143 143 134 120 116 105 120 123 168 178 151 136 124 126 111 85 97 101 107 103 103 92 88 97 98 101 95 97 97 90 86 81 80 87 137 143 140 168 192 184 174 166 171 172 174 171 181 187 185 175 154 62 30 7 355 351 357
279 147 218 237 219 267 267 213 231 245 210 275 298 307 337 297 325 97 109 76 326 292 249 160 168 146 135 132 136 141 142 142 140 146 148 151 145 144 147 146 134 104 104 115 132 149 152 155 166 175 155 148 144 163 162 160 116 116 105 103 94 86 91 95 107 112 113 104 98 91 85 79 69 83 73 89 148 211 188 189 180 162 156 169 160 137 152 198 100 60 43 42 24 11 355 351 0
97 214 202 226 260 274 260 251 249 238 173 278 292 332 273 314 81 88 130 168 218 211 219 238 147 146 144 145 147 146 148 145 143 140 132 103 143 147 137 105 106 138 147 148 164 168 155 158 168 165 153 154 163 166 168 171 160 132 115 118 102 95 108 110 108 114 117 113 110 107 93 93 95 105 97 137 182 246 189 171 171 176 174 175 144 154 148 110 76 71 80 62 12 16 352 328 318
240 299 242 231 228 231 270 273 247 199 254 230 331 253 10 29 297 161 158 183 228 222 219 132 141 132 134 136 144 148 147 143 134 110 84 49 350 4 39 105 129 138 141 134 167 166 154 157 170 158 159 159 162 168 163 174 154 139 118 125 124 127 120 114 111 106 114 121 123 121 114 112 110 120 131 159 181 211 195 190 188 186 187 176 152 145 140 82 107 106 90 100 65 14 328 319 317
201 247 258 275 224 231 263 274 268 236 196 250 211 342 313 306 296 160 56 293 286 122 108 108 123 133 138 140 147 143 137 124 110 100 102 100 81 17 4 6 139 139 140 140 190 169 156 168 170 163 158 157 162 168 171 173 158 141 142 145 120 145 132 125 122 120 122 127 130 133 123 141 148 147 160 171 190 201 197 221 249 191 185 155 102 111 117 108 129 130 112 54 24 358 327 324 328
198 260 247 257 264 245 257 255 266 246 242 257 342 291 259 226 223 53 337 335 12 99 111 120 125 129 132 133 137 127 117 110 104 105 94 92 91 56 357 346 123 17 194 176 171 179 170 170 166 162 156 160 163 165 176 169 152 135 142 128 141 151 132 140 139 132 125 130 134 145 145 154 169 157 169 193 160 188 29 5 343 328 111 99 109 82 134 168 197 149 152 140 91 35 12 340 345
209 227 249 295 282 275 260 276 260 240 248 184 147 228 253 245 91 53 281 35 70 108 112 125 128 130 135 128 119 120 117 116 117 123 138 134 126 130 217 218 174 155 232 196 181 190 170 163 163 160 161 161 161 163 166 164 161 153 152 140 161 144 142 136 139 143 147 148 165 177 173 169 178 171 179 167 149 104 45 28 19 6 6 31 74 92 70 130 204 189 120 134 124 107 352 294 12
170 226 225 249 264 273 280 234 254 215 208 185 190 237 255 261 146 258 301 124 119 109 114 128 134 136 129 123 115 121 126 142 146 142 133 160 157 156 176 199 187 176 212 207 233 225 172 157 157 160 159 161 155 163 164 166 156 161 148 137 148 124 140 140 140 151 159 171 180 168 149 154 137 89 96 107 97 106 105 59 25 31 43 41 58 73 29 129 265 226 133 127 109 123 241 350 28
286 270 316 283 280 270 254 295 265 132 258 198 185 233 254 348 101 195 178 151 140 127 128 132 130 126 130 128 130 137 135 151 140 146 154 172 189 147 174 181 190 181 190 207 224 231 183 159 154 162 159 158 158 157 169 159 169 158 142 128 122 125 146 152 151 157 168 182 165 158 147 129 112 98 110 107 102 110 121 95 40 85 103 119 119 123 85 51 73 301 90 116 117 118 345 351 343
265 325 327 292 347 319 269 210 242 160 250 150 160 11 317 325 204 217 154 140 138 134 134 133 128 134 142 142 141 144 144 150 154 160 168 162 162 151 181 172 172 164 214 210 217 194 188 161 156 161 152 154 156 161 165 158 141 135 128 135 129 145 161 147 144 160 162 166 146 152 145 114 89 118 115 131 142 137 124 122 144 208 181 140 116 110 110 53 33 10 11 57 86 58 16 2 359
13 61 184 330 348 322 293 209 326 149 247 164 151 283 261 263 267 177 147 137 130 131 140 138 140 149 154 150 146 131 139 153 172 173 158 156 159 171 166 184 192 165 156 268 225 184 176 165 153 148 153 147 156 149 139 144 156 130 124 126 140 136 151 143 137 147 151 148 150 154 135 116 118 138 132 134 149 155 164 153 148 236 220 119 116 111 104 120 78 41 353 40 39 64 44 18 38
273 269 75 239 15 275 290 28 357 315 218 172 104 231 268 265 263 178 159 151 148 152 153 147 149 156 162 163 152 148 158 181 176 167 154 152 151 147 157 206 161 89 67 266 200 170 165 158 153 153 153 138 148 152 155 161 160 141 134 136 131 141 140 136 139 145 143 158 156 151 132 130 156 144 137 144 154 149 163 169 153 200 170 136 137 152 135 147 145 125 31 42 29 58 75 55 75
348 32 298 318 111 281 296 244 219 214 285 210 133 237 250 245 210 185 166 164 154 149 151 152 153 152 160 158 148 147 155 183 187 167 160 150 143 150 162 179 149 151 202 217 198 158 157 153 165 152 143 145 150 157 154 159 157 144 130 144 121 131 129 128 136 138 144 145 144 149 147 146 154 153 145 146 156 147 140 161 175 177 208 138 99 105 119 131 180 127 101 116 83 34 91 58 66
352 80 260 294 338 265 341 309 214 213 187 303 160 219 332 284 224 175 169 157 153 143 152 155 156 153 148 169 162 151 148 190 160 183 177 154 152 170 175 182 171 169 189 202 201 169 153 154 150 146 152 152 150 145 139 139 139 140 128 115 133 124 116 122 123 125 141 130 135 176 141 136 125 145 155 158 162 197 158 156 174 221 303 36 90 98 99 150 162 152 117 92 130 134 105 114 64
320 11 237 211 277 310 303 292 289 238 171 211 248 188 223 234 168 168 161 159 151 161 160 159 151 151 158 160 165 156 170 182 194 178 188 173 165 172 182 177 175 168 185 196 212 172 155 150 145 146 142 142 146 147 151 153 144 107 99 116 121 108 113 133 136 139 126 125 157 178 147 149 139 156 173 161 144 174 192 181 161 117 87 38 33 39 112 140 132 124 101 56 80 107 118 120 118
227 309 355 325 311 203 241 314 278 345 217 201 194 220 47 29 140 164 173 162 164 173 172 157 146 154 159 164 170 171 172 190 205 183 178 177 169 169 169 156 137 261 253 292 297 225 137 135 133 135 132 136 138 135 130 110 97 85 81 88 91 96 97 103 132 108 113 128 157 173 166 164 156 166 167 140 111 126 116 141 173 170 121 90 56 281 86 359 30 68 117 110 56 80 125 148 150
214 195 216 210 287 298 294 248 278 264 243 183 162 192 138 135 166 153 121 135 109 58 81 122 141 161 168 186 180 175 181 195 192 181 181 179 180 173 161 147 153 187 228 321 263 251 134 124 126 121 129 137 132 125 123 117 108 114 110 94 79 82 96 111 87 136 139 137 177 173 182 181 177 158 146 120 132 136 153 177 194 75 69 77 206 224 230 248 231 152 98 125 87 67 63 60 46
165 213 182 245 242 275 265 275 274 66 93 360 203 112 160 180 173 177 161 140 112 134 146 160 165 165 185 190 190 182 185 191 180 180 181 181 182 174 177 196 174 155 151 173 225 266 141 135 134 136 142 146 147 143 141 145 132 102 70 96 126 123 118 101 89 95 100 100 96 113 142 153 173 147 146 146 159 174 131 133 131 119 113 169 222 241 244 251 31 78 114 90 121 106 31 28 22
205 213 207 274 235 270 260 295 316 349 116 340 94 117 119 199 196 166 153 136 171 171 175 178 168 181 188 191 186 186 187 103 150 181 192 178 175 175 152 144 146 153 161 161 186 206 143 132 140 140 144 157 158 152 148 143 150 161 150 170 143 133 120 118 110 97 86 75 75 71 83 75 72 94 114 140 161 137 134 147 155 150 163 207 251 293 288 290 33 90 118 63 19 120 134 207 203
81 201 211 14 289 254 295 310 321 354 83 351 59 127 199 308 274 230 168 185 190 178 180 179 169 179 187 191 180 171 173 177 178 195 195 188 179 172 161 171 184 174 166 167 167 166 148 138 145 147 154 151 149 141 136 143 127 131 132 155 145 102 4 45 114 108 91 102 81 80 75 66 71 66 106 157 152 135 148 133 129 130 147 163 175 201 231 235 239 149 158 142 112 38 119 204 200
171 325 52 271 243 32 324 293 348 347 71 125 136 97 314 332 322 281 279 246 197 190 178 171 178 174 186 189 183 177 181 175 186 189 193 193 185 174 170 178 182 177 159 160 158 169 160 146 153 150 149 144 138 138 126 111 108 98 88 112 83 107 145 89 66 47 50 59 46 59 71 87 70 68 66 94 103 100 110 117 130 146 151 161 155 150 156 207 194 155 153 156 154 151 135 293 151
285 213 140 248 317 248 177 269 308 304 359 71 75 49 352 352 59 233 281 356 90 133 165 178 214 234 179 156 178 187 184 181 180 183 193 190 191 187 181 179 175 180 175 173 170 175 168 162 159 154 150 148 139 127 115 114 104 91 93 78 90 78 54 63 77 40 34 76 69 51 56 82 82 75 68 77 93 102 103 113 110 111 107 109 122 124 159 200 203 194 186 171 188 150 178 143 72
308 233 180 193 194 241 300 324 45 25 15 359 75 44 329 299 305 215 234 51 142 174 186 211 178 185 163 173 196 193 210 208 186 188 190 185 184 176 181 177 176 180 179 181 177 177 168 162 155 150 139 131 126 118 125 121 123 127 123 120 112 99 110 110 125 130 89 81 86 60 56 62 86 78 68 73 85 99 98 102 102 98 86 85 101 111 127 94 93 133 187 167 168 235 144 96 130
103 268 192 174 158 129 38 13 64 360 100 334 38 128 242 322 215 198 202 206 213 221 221 201 179 207 168 172 186 199 197 190 196 165 161 175 186 183 185 180 177 179 186 178 185 181 173 163 159 149 141 126 111 118 125 120 119 130 136 136 139 143 137 279 333 93 108 78 75 72 65 52 69 92 77 82 87 91 96 90 95 96 94 88 95 100 84 94 102 111 129 119 140 136 110 107 128
237 238 125 103 102 125 146 89 94 196 218 296 32 88 130 336 302 295 308 208 206 221 232 220 214 206 177 161 184 202 201 195 192 183 177 184 186 185 185 180 180 183 178 179 187 184 174 166 153 140 123 114 110 124 131 138 138 139 127 126 133 140 147 154 143 93 64 95 77 57 71 54 54 77 97 90 103 109 111 105 102 95 88 80 86 77 90 80 77 45 60 106 116 124 128 135 130
215 204 156 165 183 184 126 97 107 357 68 284 330 350 50 280 262 315 9 150 253 238 223 216 218 208 184 167 179 197 204 192 187 184 183 184 188 190 180 182 182 176 182 186 186 181 170 157 142 126 117 113 115 133 140 152 143 150 147 140 128 127 139 127 117 78 85 76 87 54 74 62 58 49 78 107 111 121 117 118 107 95 92 86 84 85 76 76 80 80 62 72 96 73 101 134 136
277 154 97 75 76 74 110 102 92 346 69 273 286 346 147 287 284 339 352 94 51 268 258 241 225 204 181 168 167 179 181 187 199 201 185 184 189 191 188 168 173 190 188 185 182 168 159 142 129 121 110 108 125 139 148 154 153 148 144 149 142 141 117 96 97 104 100 101 104 89 84 81 72 67 61 97 109 117 119 111 103 103 105 97 87 99 92 71 65 70 65 76 80 90 59 91 111
107 93 96 26 47 23 16 63 91 64 54 260 247 286 138 291 280 234 32 318 234 270 296 271 209 211 186 168 175 174 179 184 191 179 176 196 194 169 153 178 186 182 190 190 186 170 131 99 73 79 88 106 129 152 164 165 166 156 152 152 148 146 143 134 120 112 105 97 120 123 118 109 69 107 82 51 80 104 97 99 107 111 103 92 95 86 87 98 85 83 79 77 70 84 87 89 82
117 93 120 83 323 19 29 347 38 93 270 257 265 281 75 158 298 308 236 277 278 236 244 228 199 186 173 176 176 173 169 164 146 155 163 152 139 144 164 184 190 194 190 179 48 54 61 61 72 65 66 124 141 158 172 169 156 154 153 153 152 156 155 155 156 162 173 155 150 152 136 89 78 43 66 96 71 80 95 79 82 86 89 93 86 97 90 91 86 80 64 67 70 72 82 86 85
86 81 43 114 244 40 252 7 278 127 169 203 287 153 33 195 215 277 316 326 315 255 224 225 201 168 169 172 166 153 136 135 144 157 159 171 181 179 184 198 198 181 57 66 76 72 76 86 86 104 136 161 153 132 144 158 149 162 162 156 154 159 159 152 160 162 172 159 165 150 143 156 156 128 196 136 156 129 120 114 111 111 97 97 113 98 95 92 87 79 76 68 65 60 59 76 77
107 132 120 90 94 48 233 280 231 316 296 256 274 216 213 242 306 329 314 306 314 336 18 102 57 26 116 109 109 105 114 125 126 149 180 194 195 203 197 193 189 84 90 93 101 128 140 144 143 152 137 84 110 143 164 180 180 171 166 156 156 157 162 154 166 170 177 161 169 176 175 172 180 188 195 193 189 157 132 135 126 117 118 117 111 110 104 94 91 90 81 75 72 79 75 73 81
205 143 145 180 144 158 213 201 187 207 182 258 268 67 225 105 241 291 298 296 66 41 44 78 85 94 91 89 83 77 75 53 63 88 142 235 234 206 202 198 88 98 110 121 126 141 156 160 168 168 156 173 168 170 176 183 175 167 161 156 156 162 165 163 172 175 167 165 178 184 197 189 187 209 203 211 190 155 145 133 131 127 132 127 120 110 98 84 85 82 80 88 76 74 72 70 55
228 158 82 96 222 148 138 207 146 186 155 20 276 213 167 118 264 285 303 320 42 65 66 50 61 85 92 80 76 77 74 73 62 43 20 13 353 329 302 73 94 117 128 141 151 156 167 176 176 177 182 177 165 177 186 175 163 153 155 165 173 168 172 163 162 165 169 165 174 186 195 202 211 206 235 223 205 161 150 146 140 143 140 134 140 138 133 121 115 103 86 83 67 53 84 75 81
252 99 168 204 171 107 89 56 67 86 55 240 248 33 341 295 341 339 341 23 25 33 55 81 61 47 82 94 93 79 55 58 65 63 36 2 7 16 23 89 118 125 135 153 168 174 170 158 169 201 172 175 179 182 160 146 144 149 171 172 167 169 171 171 173 179 177 175 173 200 200 208 215 219 222 224 198 196 169 152 157 159 153 145 143 149 146 142 138 126 124 112 106 91 88 96 93
81 161 230 140 103 119 122 155 340 57 145 250 22 191 219 79 215 332 349 45 357 26 28 72 101 93 61 84 89 103 106 106 101 86 67 32 9 23 41 88 129 136 148 160 177 179 147 151 170 183 173 171 191 113 101 166 168 160 164 167 175 179 180 184 180 178 175 166 179 197 220 217 219 219 218 220 189 183 203 166 149 180 187 145 150 155 153 152 142 139 142 140 150 121 96 80 84
162 205 184 93 270 164 329 99 111 109 249 271 2 273 252 164 232 318 233 166 144 60 33 53 60 74 147 139 119 112 128 127 89 80 84 43 33 7 49 84 121 134 148 158 172 150 140 149 172 182 184 159 98 101 231 194 178 172 167 173 177 186 186 187 190 178 170 173 181 188 194 215 226 225 218 220 193 187 182 141 85 234 251 210 151 168 159 157 154 144 150 145 159 135 122 118 132
8 63 18 51 99 155 129 196 166 118 204 82 275 52 190 221 215 191 213 222 168 123 84 81 68 83 77 81 90 105 102 94 101 95 92 98 69 56 59 85 121 145 155 173 189 179 139 142 154 167 139 135 141 164 192 185 186 164 163 161 177 188 187 185 185 172 176 178 186 188 201 207 217 206 217 205 196 180 170 177 193 217 228 248 226 209 175 171 167 164 159 149 167 143 141 149 150
338 35 335 360 31 215 106 32 81 163 161 171 152 349 281 266 218 167 203 182 177 148 135 119 121 117 110 100 108 103 102 108 107 104 101 93 71 59 61 70 89 102 131 161 184 181 128 126 137 157 160 151 151 173 189 171 138 144 135 155 169 176 193 195 184 185 173 181 180 218 208 211 186 205 198 195 193 189 186 194 199 203 200 220 231 227 204 164 166 186 206 164 157 162 155 171 152
144 148 138 185 124 121 130 240 20 84 101 188 124 220 272 269 177 198 184 197 156 164 142 150 160 157 148 141 133 130 118 106 108 110 108 101 87 68 63 73 88 104 126 156 172 139 129 136 146 143 142 164 160 179 180 128 56 107 145 152 152 173 190 196 167 99 95 210 183 215 248 215 204 215 192 202 200 196 192 224 230 229 229 213 211 224 200 160 173 175 209 207 172 181 169 171 164